This demonstration page uses our WeatherBlox Daily Observations layout. Learn more.

Left ArrowRight Arrow

39.12711, -84.51439

Hourly Observations for October 6, 2020

Temp ( °F °C ) Dew Point ( °F °C ) Humidity (%) Winds ( mph kmh ) Pressure ( in mb ) Visibility ( mi km ) Precip ( " mm )
12:48 am 00:48 Clear with Mist and Fog 43 6 39 4 87 87 Calm 30.18 1022 3 4 0.00 0.00
12:53 am 00:53 Clear 42 5.6 40 4.4 92 92 Calm 30.16 1021 9 14 0.00 0.00
1:44 am 01:44 Clear with Mist and Fog 39 3.9 38 3.3 96 96 Calm 30.18 1022 2 3 0.00 0.00
1:53 am 01:53 Clear with Mist and Fog 39 3.9 37 2.8 93 93 Calm 30.15 1021 1 2 0.00 0.00
2:07 am 02:07 Clear with Fog 39 3.9 37 2.8 93 93 Calm 30.17 1022 0 0 0.00 0.00
2:15 am 02:15 Mostly Cloudy with Fog 40 4.4 39 3.9 97 97 Calm 30.17 1022 1 1 0.00 0.00
2:25 am 02:25 Mostly Clear with Mist and Fog 40 4.4 39 3.9 97 97 Calm 30.17 1022 1 2 0.00 0.00
2:35 am 02:35 Mostly Cloudy with Mist and Fog 39 3.9 38 3.3 96 96 Calm 30.17 1022 1 2 0.00 0.00
2:50 am 02:50 Partly Cloudy with Mist and Fog 39 4 39 4 100 100 Calm 30.17 1022 1 2 0.00 0.00
2:53 am 02:53 Partly Cloudy with Mist and Fog 39 3.9 39 3.9 100 100 Calm 30.14 1021 2 3 0.00 0.00
2:57 am 02:57 Mostly Cloudy with Mist and Fog 39 3.9 38 3.3 96 96 Calm 30.16 1021 3 5 0.00 0.00
3:10 am 03:10 Mostly Cloudy with Mist and Fog 40 4.4 40 4.4 100 100 Calm 30.16 1021 2 2 0.00 0.00
3:19 am 03:19 Mostly Cloudy with Fog 40 4.4 39 3.9 97 97 Calm 30.16 1021 0 0 0.00 0.00
3:53 am 03:53 Mostly Cloudy with Fog 40 4.4 39 3.9 97 97 Calm 30.14 1021 0 0 0.00 0.00
4:53 am 04:53 Mostly Cloudy with Fog 41 5 41 5 100 100 Calm 30.14 1021 N/A 0.01 0.25
5:53 am 05:53 Mostly Cloudy with Fog 41 5 40 4.4 96 96 Calm 30.14 1021 0 0 0.00 0.00
6:53 am 06:53 Mostly Cloudy with Fog 40 4.4 40 4.4 100 100 Calm 30.14 1021 1 1 0.00 0.00
7:53 am 07:53 Mostly Cloudy with Fog 39 3.9 39 3.9 100 100 Calm 30.15 1021 1 1 0.00 0.00
8:44 am 08:44 Partly Cloudy with Mist and Fog 42 5.6 42 5.6 100 100 Calm 30.16 1021 3 5 0.00 0.00
8:53 am 08:53 Mostly Sunny 44 6.7 43 6.1 96 96 Calm 30.14 1021 10 16 0.00 0.00
9:53 am 09:53 Sunny 50 10 47 8.3 89 89 S 5 7 30.14 1021 10 16 0.00 0.00
10:53 am 10:53 Sunny 58 14.4 48 8.9 70 70 S 8 13 30.13 1020 10 16 0.00 0.00
11:53 am 11:53 Sunny 64 17.8 45 7.2 50 50 SSW 14 22 30.10 1019 10 16 0.00 0.00
12:53 pm 12:53 Sunny 67 19.4 44 6.7 44 44 WSW 10 17 30.09 1019 10 16 0.00 0.00
1:53 pm 13:53 Sunny 69 20.6 44 6.7 41 41 SW 12 19 30.06 1018 10 16 0.00 0.00
2:53 pm 14:53 Sunny 71 21.7 44 6.7 38 38 SSW 14 22 30.02 1017 10 16 0.00 0.00
3:53 pm 15:53 Sunny 72 22.2 44 6.7 37 37 SSW 14 22 30.00 1016 10 16 0.00 0.00
4:53 pm 16:53 Sunny 72 22.2 41 5 33 33 SSW 15 24 29.98 1015 10 16 0.00 0.00
5:53 pm 17:53 Mostly Cloudy 70 21.1 43 6.1 38 38 S 12 19 29.98 1015 10 16 0.00 0.00
6:53 pm 18:53 Sunny 63 17.2 44 6.7 50 50 SSW 10 17 29.99 1016 10 16 0.00 0.00
7:53 pm 19:53 Clear 59 15 46 7.8 62 62 WSW 6 9 30.00 1016 10 16 0.00 0.00
8:53 pm 20:53 Clear 54 12.2 47 8.3 77 77 Calm 30.00 1016 10 16 0.00 0.00
9:53 pm 21:53 Clear 51 10.6 47 8.3 86 86 Calm 29.99 1016 10 16 0.00 0.00
10:53 pm 22:53 Clear 51 10.6 47 8.3 86 86 Calm 29.99 1016 10 16 0.00 0.00
11:53 pm 23:53 Clear 50 10 46 7.8 86 86 Calm 29.99 1016 10 16 0.00 0.00

Powered by AerisWeather